TimeCDT,TemperatureF,Dew PointF,Humidity,Sea Level PressureIn,VisibilityMPH,Wind Direction,Wind SpeedMPH,Gust SpeedMPH,PrecipitationIn,Events,Conditions,WindDirDegrees,DateUTC
12:53 AM,72.0,57.9,61,30.00,10.0,South,5.8,-,N/A,,Partly Cloudy,190,2013-07-13 05:53:00
1:53 AM,73.0,57.0,57,29.99,10.0,South,13.8,17.3,N/A,,Partly Cloudy,170,2013-07-13 06:53:00
2:53 AM,72.0,55.9,57,29.99,10.0,South,8.1,-,N/A,,Clear,180,2013-07-13 07:53:00
3:53 AM,72.0,55.9,57,29.96,10.0,South,8.1,16.1,N/A,,Clear,180,2013-07-13 08:53:00
4:53 AM,72.0,55.9,57,30.03,10.0,SSW,5.8,-,N/A,,Overcast,210,2013-07-13 09:53:00
5:53 AM,72.0,55.9,57,30.03,10.0,South,5.8,-,N/A,,Overcast,190,2013-07-13 10:53:00
6:37 AM,71.6,57.2,60,30.05,10.0,SSW,8.1,16.1,N/A,,Overcast,210,2013-07-13 11:37:00
6:53 AM,70.0,57.9,65,30.04,10.0,SSW,5.8,-,0.00,Rain,Light Rain,210,2013-07-13 11:53:00
7:48 AM,69.8,59.0,68,30.05,10.0,South,8.1,-,0.00,,Mostly Cloudy,190,2013-07-13 12:48:00
7:53 AM,69.1,59.0,70,30.04,10.0,South,9.2,-,0.00,,Mostly Cloudy,190,2013-07-13 12:53:00
8:26 AM,69.8,59.0,68,30.06,10.0,SSW,9.2,-,N/A,,Overcast,200,2013-07-13 13:26:00
8:53 AM,71.1,59.0,66,30.04,10.0,South,8.1,-,N/A,,Mostly Cloudy,180,2013-07-13 13:53:00
9:53 AM,71.1,60.1,68,30.05,10.0,South,9.2,-,N/A,,Overcast,180,2013-07-13 14:53:00
10:53 AM,73.9,62.1,66,30.05,10.0,SSE,8.1,-,N/A,,Mostly Cloudy,160,2013-07-13 15:53:00
11:08 AM,75.2,62.6,65,30.06,10.0,SSE,10.4,-,N/A,,Partly Cloudy,150,2013-07-13 16:08:00
11:34 AM,75.2,62.6,65,30.07,10.0,Variable,3.5,-,N/A,,Mostly Cloudy,0,2013-07-13 16:34:00
11:53 AM,75.9,64.0,67,30.06,10.0,South,9.2,-,N/A,,Overcast,180,2013-07-13 16:53:00
12:35 PM,78.8,64.4,61,30.07,10.0,South,9.2,17.3,N/A,,Scattered Clouds,190,2013-07-13 17:35:00
12:53 PM,79.0,64.9,62,30.06,10.0,South,11.5,-,N/A,,Partly Cloudy,170,2013-07-13 17:53:00
1:53 PM,75.9,64.9,69,30.07,10.0,South,8.1,-,N/A,,Overcast,180,2013-07-13 18:53:00
2:53 PM,75.9,64.9,69,30.07,10.0,South,3.5,-,N/A,,Overcast,180,2013-07-13 19:53:00
3:53 PM,75.9,64.0,67,30.07,10.0,Variable,5.8,-,N/A,,Overcast,0,2013-07-13 20:53:00
4:53 PM,77.0,64.0,64,30.05,10.0,SSE,10.4,17.3,N/A,,Overcast,160,2013-07-13 21:53:00
5:53 PM,75.9,64.0,67,30.06,10.0,SSW,5.8,-,N/A,,Overcast,210,2013-07-13 22:53:00
6:53 PM,75.9,64.9,69,30.06,10.0,South,6.9,-,N/A,,Overcast,170,2013-07-13 23:53:00
7:53 PM,75.0,63.0,66,30.07,10.0,South,5.8,-,N/A,,Clear,180,2013-07-14 00:53:00
8:53 PM,73.9,63.0,68,30.07,10.0,South,3.5,-,N/A,,Mostly Cloudy,180,2013-07-14 01:53:00
9:53 PM,73.0,62.1,68,30.08,10.0,South,4.6,-,N/A,,Overcast,190,2013-07-14 02:53:00
10:53 PM,73.0,61.0,66,30.10,10.0,South,4.6,-,N/A,,Mostly Cloudy,180,2013-07-14 03:53:00
11:53 PM,73.0,60.1,64,30.11,10.0,South,5.8,-,N/A,,Overcast,180,2013-07-14 04:53:00